Regional Weather Roundup
Issued by NWS

Home | Current Version | Previous Version | Text Only | Print | Product List | Glossary On
Versions: 1 2 3 4 5 6 7 8 9 10 11 12 13 14 15 16 17 18 19 20 21 22 23 24 25 26 27 28 29 30 31 32 33 34 35 36 37 38 39 40 41 42 43 44 45 46 47 48 49 50
147
ASUS43 KMPX 181201
RWRMN
WEATHER ROUNDUP FOR MINNESOTA
NATIONAL WEATHER SERVICE TWIN CITIES/CHANHASSEN MN
600 AM CST THU JAN 18 2018


NOTE: "FAIR" INDICATES FEW OR NO CLOUDS BELOW 12,000 FEET WITH NO
SIGNIFICANT WEATHER AND/OR OBSTRUCTIONS TO VISIBILITY. N/A MEANS
CURRENT SKY AND/OR WEATHER CONDITIONS ARE NOT AVAILABLE.

MNZ060>063-068>070-181300-
   Twin Cities Metro

CITY           SKY/WX    TMP DP  RH WIND       PRES   REMARKS
TWIN CITIES    MOCLDY    26  19  74 W5        29.89F WCI  20
6HR MIN TEMP:  21; 6HR MAX TEMP:  26;

ST PAUL        FAIR      22  18  85 CALM      29.91F
CRYSTAL        FAIR      23  15  71 S5        29.88S WCI  17
BLAINE         FAIR      25  19  80 SW7       29.87R WCI  17
LAKEVILLE      FAIR      21  18  86 SW5       29.89F WCI  15
EDEN PRAIRIE   FAIR      24  17  74 W8        29.88F WCI  15
6HR MIN TEMP:  21; 6HR MAX TEMP:  24;

SOUTH ST PAUL  FAIR      23  18  80 SE5       29.89F WCI  17
LAKE ELMO      FAIR      23  19  86 S6        29.90R WCI  16
$$
MNZ001>005-007-008-013>017-022>024-027-028-181300-
   Northwest Minnesota

CITY           SKY/WX    TMP DP  RH WIND       PRES   REMARKS
BEMIDJI        CLOUDY    32  23  71 W18       29.71S WCI  20
HALLOCK        CLOUDY    27  19  74 N10       29.75S WCI  17
ROSEAU         FAIR      27  19  74 NW8       29.70S WCI  18
WARROAD        CLOUDY    28  25  86 NW14      29.69R WCI  17
CROOKSTON      FAIR      23  18  80 W8        29.77S WCI  14
FOSSTON        CLOUDY    27  21  80 W10       29.75S WCI  17
DETROIT LAKES  FAIR      32  23  69 W10       29.79F WCI  24
MOORHEAD       FAIR      27  19  74 W6        29.81F WCI  20
PARK RAPIDS    FAIR      26  19  74 W12       29.74F WCI  16
MAHNOMEN       FAIR      27  20  77 W15       29.75F WCI  15
$$
MNZ006-009>011-018-025>026-181300-
   North Central Minnesota

CITY           SKY/WX    TMP DP  RH WIND       PRES   REMARKS
BAUDETTE       CLOUDY    30  24  78 W15G26    29.64R WCI  19
FLAG ISLAND    CLOUDY    27  25  93 NW23G30   29.65R WCI  12
INTL FALLS     CLOUDY    31  28  89 W9        29.63S WCI  23
6HR MIN TEMP:  21; 6HR MAX TEMP:  32; 6HR PCP:  0.07;

WASKISH        CLOUDY    32  28  86 W12       29.68S WCI  23
BIG FORK       CLOUDY    30  28  93 SW7       29.67F WCI  23
LONGVILLE      FAIR      30  21  69 SW7       29.72F WCI  23
GRAND RAPIDS   CLOUDY    30  22  72 SW8       29.71F WCI  22
CRANE LAKE     LGT SNOW  27  27 100 SW5       29.66F WCI  21
ORR            LGT SNOW  28  25  86 W5        29.63S WCI  23
COOK           CLOUDY    28  27  93 SW7       29.66F WCI  21
WALKER         FAIR      32  21  64 W9        29.71F WCI  24
$$
MNZ012-019>021-037-181300-
   Northeast Minnesota

CITY           SKY/WX    TMP DP  RH WIND       PRES   REMARKS
DULUTH         CLOUDY    27  20  75 W12       29.71R WCI  17
6HR MIN TEMP:  23; 6HR MAX TEMP:  27;

ELY            LGT SNOW  25  25 100 SW5       29.65F WCI  19
HIBBING        FLURRIES  23  19  85 CALM      29.68F
EVELETH        FLURRIES  21  16  83 CALM      29.69S
DULUTH HARBOR  MOCLDY    27  21  80 SW13      29.74F WCI  16
TWO HARBORS    FAIR      27  19  74 SW5       29.68F WCI  21
SILVER BAY     MOCLDY    19  18  93 SW5       29.68F WCI  13
GRAND MARAIS     N/A     23  20  88 NW3       29.71F
G MARAIS ARPRT CLOUDY    16  12  86 CALM      29.65F
$$
MNZ029>031-032-039>041-046>048-054>057-064-181300-
   West Central Minnesota

CITY           SKY/WX    TMP DP  RH WIND       PRES   REMARKS
FERGUS FALLS   FAIR      21  18  86 CALM      29.83F
WHEATON        CLEAR     30  21  69 NW7       29.86F WCI  23
MORRIS         CLEAR     28  21  74 NW10      29.85R WCI  19
ALEXANDRIA     FAIR      30  21  69 W12       29.82F WCI  20
ELBOW LAKE     FAIR      25  19  80 SW9       29.83F WCI  15
WADENA         FAIR      27  19  74 W10       29.78F WCI  17
GLENWOOD       FAIR      27  19  74 W13       29.84S WCI  16
APPLETON       CLEAR     27  19  74 SW7       29.86S WCI  19
BENSON         CLOUDY    25  19  80 W6        29.86F WCI  18
ORTONVILLE     CLEAR     32  19  59 W6        29.85F WCI  26
MADISON        CLOUDY    36  25  64 W9        29.86F
WILLMAR        FAIR      21  18  86 SW5       29.89F WCI  15
$$
MNZ033>034-036-042>043-049>051-058-059-181300-
   Central Minnesota

CITY           SKY/WX    TMP DP  RH WIND       PRES   REMARKS
ST CLOUD       FAIR      17  15  92 SW7       29.85S WCI   8
6HR MIN TEMP:  17; 6HR MAX TEMP:  26;

SAUK CENTRE      N/A     24  18  78 W8        29.84S WCI  14
PAYNESVILLE    FAIR      24  20  85 W8        29.85F WCI  15
AITKIN         FAIR      28  19  69 SW9       29.74F WCI  20
PINE RIVER     FAIR      28  19  69 W9        29.78F WCI  20
BRAINERD       FAIR      32  20  61 W14       29.76F WCI  22
STAPLES        FAIR      30  19  64 W13       29.78F WCI  20
LONG PRAIRIE   FAIR      28  19  69 S9        29.81F WCI  20
LITTLE FALLS   FAIR      23  12  63 CALM      29.82S
LITCHFIELD     FAIR      25  19  80 SW7       29.88S WCI  17
BUFFALO        FAIR      23  18  81 SW8       29.89R WCI  14
MAPLE LAKE     FAIR      24  20  87 MISG      29.87S
HUTCHINSON     FAIR      23  19  83 W3        29.90R
$$
MNZ037-044-045-052-053-181300-
   East Central Minnesota

CITY           SKY/WX    TMP DP  RH WIND       PRES   REMARKS
PRINCETON      FAIR      21  18  86 S5        29.84S WCI  15
MORA           FAIR      21  18  86 SW7       29.84F WCI  13
CAMBRIDGE      FAIR      23  16  74 S7        29.86S WCI  15
RUSH CITY      FAIR      23  18  80 S8        29.85F WCI  14
MOOSE LAKE     FAIR      23  19  86 SW8       29.74F WCI  14
HINCKLEY       FAIR      23  19  86 SW7       29.81F WCI  15
CLOQUET        FAIR      25  18  74 SW8       29.71F WCI  16
MCGREGOR       FAIR      28  23  80 SW5       29.74F WCI  23
$$
MNZ071>073-080-081-089-090-097-098-181300-
   Southwest Minnesota

CITY           SKY/WX    TMP DP  RH WIND       PRES   REMARKS
MONTEVIDEO     CLOUDY    27  21  80 W5        29.88F WCI  21
GRANITE FALLS  CLOUDY    27  22  81 SW12      29.91F WCI  16
CANBY          CLOUDY    35  23  63 SW10G21   29.89F WCI  27
MARSHALL       CLOUDY    28  21  75 SW16      29.91S WCI  16
REDWOOD FALLS  PTCLDY    24  19  81 SW12      29.90F WCI  13
OLIVIA         CLOUDY    21  18  86 SW10      29.88F WCI  10
PIPESTONE      CLOUDY    16  14  93 SW7       29.94F WCI   6
WINDOM         CLOUDY    23   9  54 SW12      29.94F WCI  12
WORTHINGTON    CLOUDY    21  16  81 SW13      29.97F WCI   9
JACKSON        CLOUDY    23  18  80 SW13      29.96F WCI  11
SLAYTON        PTCLDY    25  20  83 SW18      29.94F WCI  11
$$
MNZ065>067-074>077-082>085-091>093-181300-
   South Central Minnesota

CITY           SKY/WX    TMP DP  RH WIND       PRES   REMARKS
MANKATO        FAIR      20  15  81 S7        29.95F WCI  11
NEW ULM        PTCLDY    19  16  86 SW8       29.92F WCI   9
ST JAMES       CLOUDY    25  19  80 S6        29.93F WCI  18
FAIRMONT       CLOUDY    23  18  81 SW8       29.97F WCI  14
FARIBAULT      FAIR      21  16  79 S12       29.93F WCI   9
OWATONNA       FAIR      21  16  79 S15       29.93F WCI   8
WASECA         FAIR      19  16  86 S12       29.95F WCI   7
ALBERT LEA     FAIR      19  12  73 S8        29.96F WCI   9
$$
MNZ078>079-086>088-094>096-181300-
   Southeast Minnesota

CITY           SKY/WX    TMP DP  RH WIND       PRES   REMARKS
ROCHESTER      FAIR      19  15  84 SW18      29.93F WCI   4
6HR MIN TEMP:  16; 6HR MAX TEMP:  20;

RED WING       FAIR      19  12  73 CALM      29.92F
STANTON        FAIR      24  18  77 SW13      29.90F WCI  13
DODGE CENTER   FAIR      19  16  86 SW18      29.92F WCI   4
WINONA         FAIR      23  14  68 SW7       29.97F WCI  15
AUSTIN         FAIR      16  10  79 SW8       29.99F WCI   5
PRESTON        FAIR      18  12  79 SW12      29.98F WCI   5
$$
ABBREVIATIONS USED IN REMARKS
   TC - TEMPERATURES IN CELSIUS
  WCI - WIND CHILL INDEX
   HX - HEAT INDEX
  VSB - VISIBILITY
$$




USA.gov is the U.S. government's official web portal to all federal, state and local government web resources and services.